| time (UTC) | temp F | wind direction | speed MPH | gust MPH | rain 1hr in | rain 24hr in | rain mn in | humidity % | barometer mb |
| 20260509071139 | 48 | 58 | 0.0 | 0.0 | 0.00 | 0.00 | 0.00 | 86 | 1009.8 |
| 20260509070625 | 48 | 58 | 0.0 | 0.0 | 0.00 | 0.00 | 0.00 | 86 | 1009.8 |
| 20260509070119 | 48 | 58 | 0.0 | 0.0 | 0.00 | 0.00 | 0.00 | 85 | 1009.9 |
| 20260509065636 | 49 | 58 | 0.0 | 0.0 | 0.00 | 0.00 | 0.00 | 85 | 1009.9 |
| 20260509065121 | 49 | 58 | 0.0 | 0.0 | 0.00 | 0.00 | 0.00 | 85 | 1010.0 |
| 20260509064617 | 49 | 58 | 0.0 | 0.0 | 0.00 | 0.00 | 0.00 | 85 | 1010.2 |
| 20260509064128 | 49 | 58 | 0.0 | 0.0 | 0.00 | 0.00 | 0.00 | 85 | 1010.3 |
| 20260509063643 | 49 | 58 | 0.0 | 0.0 | 0.00 | 0.00 | 0.00 | 85 | 1010.4 |
| 20260509063128 | 49 | 58 | 0.0 | 0.0 | 0.00 | 0.00 | 0.00 | 85 | 1010.4 |
| 20260509062623 | 49 | 58 | 0.0 | 0.0 | 0.00 | 0.00 | 0.00 | 85 | 1010.6 |
| 20260509062157 | 49 | 58 | 0.0 | 0.0 | 0.00 | 0.00 | 0.00 | 85 | 1010.7 |
| 20260509061623 | 49 | 58 | 0.0 | 0.0 | 0.00 | 0.00 | 0.00 | 85 | 1010.6 |
| 20260509061119 | 49 | 58 | 0.0 | 0.0 | 0.00 | 0.00 | 0.00 | 84 | 1010.8 |
| 20260509060633 | 49 | 58 | 0.0 | 0.0 | 0.00 | 0.00 | 0.00 | 84 | 1010.8 |
| 20260509060140 | 49 | 58 | 0.0 | 0.0 | 0.00 | 0.00 | 0.00 | 84 | 1010.8 |
| 20260509055637 | 49 | 58 | 0.0 | 0.0 | 0.00 | 0.00 | 0.00 | 84 | 1010.9 |
| 20260509055144 | 49 | 58 | 0.0 | 0.0 | 0.00 | 0.00 | 0.00 | 84 | 1011.0 |
| 20260509054636 | 50 | 58 | 0.0 | 0.0 | 0.00 | 0.00 | 0.00 | 84 | 1011.0 |
| 20260509054124 | 50 | 58 | 0.0 | 0.0 | 0.00 | 0.00 | 0.00 | 84 | 1011.1 |
| 20260509053638 | 50 | 58 | 0.0 | 0.0 | 0.00 | 0.00 | 0.00 | 84 | 1011.1 |
| 20260509053145 | 50 | 59 | 0.0 | 0.0 | 0.00 | 0.00 | 0.00 | 84 | 1011.2 |
| 20260509052622 | 50 | 58 | 0.0 | 0.0 | 0.00 | 0.00 | 0.00 | 84 | 1011.2 |
| 20260509052136 | 50 | 59 | 0.0 | 0.0 | 0.00 | 0.00 | 0.00 | 84 | 1011.2 |
| 20260509051643 | 50 | 59 | 0.0 | 0.0 | 0.00 | 0.00 | 0.00 | 83 | 1011.2 |
| 20260509051155 | 50 | 58 | 0.0 | 0.0 | 0.00 | 0.00 | 0.00 | 83 | 1011.2 |
| 20260509050620 | 50 | 58 | 0.0 | 0.0 | 0.00 | 0.00 | 0.00 | 83 | 1011.4 |
| 20260509050155 | 50 | 59 | 0.0 | 0.0 | 0.00 | 0.00 | 0.00 | 83 | 1011.4 |
| 20260509045642 | 50 | 59 | 0.0 | 0.0 | 0.00 | 0.00 | 0.00 | 83 | 1011.6 |
| 20260509045134 | 50 | 59 | 0.0 | 3.0 | 0.00 | 0.00 | 0.00 | 83 | 1011.6 |
| 20260509044623 | 50 | 59 | 0.0 | 3.0 | 0.00 | 0.00 | 0.00 | 83 | 1011.5 |
| 20260509044139 | 50 | 60 | 0.0 | 2.0 | 0.00 | 0.00 | 0.00 | 84 | 1011.5 |
| 20260509043625 | 50 | 60 | 0.0 | 4.0 | 0.00 | 0.00 | 0.00 | 84 | 1011.7 |
| 20260509043119 | 49 | 62 | 1.0 | 4.0 | 0.00 | 0.00 | 0.00 | 84 | 1011.7 |
| 20260509042656 | 49 | 67 | 2.0 | 4.0 | 0.00 | 0.00 | 0.00 | 85 | 1011.8 |
| 20260509042122 | 49 | 47 | 0.0 | 1.0 | 0.00 | 0.00 | 0.00 | 85 | 1011.9 |
| 20260509041637 | 49 | 43 | 0.0 | 0.0 | 0.00 | 0.00 | 0.00 | 85 | 1011.8 |
| 20260509041125 | 49 | 43 | 0.0 | 0.0 | 0.00 | 0.00 | 0.00 | 85 | 1011.8 |
| 20260509040618 | 49 | 40 | 0.0 | 0.0 | 0.00 | 0.00 | 0.00 | 85 | 1011.7 |
| 20260509040131 | 49 | 40 | 0.0 | 0.0 | 0.00 | 0.00 | 0.00 | 85 | 1011.8 |
| 20260509035618 | 49 | 40 | 0.0 | 0.0 | 0.00 | 0.00 | 0.00 | 86 | 1011.7 |
| 20260509035132 | 49 | 40 | 0.0 | 0.0 | 0.00 | 0.00 | 0.00 | 85 | 1011.7 |
| 20260509034621 | 49 | 40 | 0.0 | 0.0 | 0.00 | 0.00 | 0.00 | 85 | 1011.7 |
| 20260509034137 | 49 | 39 | 0.0 | 0.0 | 0.00 | 0.00 | 0.00 | 85 | 1011.6 |
| 20260509033622 | 49 | 313 | 0.0 | 0.0 | 0.00 | 0.00 | 0.00 | 85 | 1011.4 |
| 20260509033153 | 49 | 222 | 0.0 | 0.0 | 0.00 | 0.00 | 0.00 | 85 | 1011.4 |
| 20260509032626 | 49 | 222 | 0.0 | 0.0 | 0.00 | 0.00 | 0.00 | 85 | 1011.3 |
| 20260509032119 | 49 | 222 | 0.0 | 0.0 | 0.00 | 0.00 | 0.00 | 85 | 1011.2 |
| 20260509031633 | 49 | 222 | 0.0 | 0.0 | 0.00 | 0.00 | 0.00 | 85 | 1011.2 |
| 20260509031129 | 49 | 222 | 0.0 | 0.0 | 0.00 | 0.00 | 0.00 | 85 | 1011.2 |
| 20260509030621 | 49 | 222 | 0.0 | 0.0 | 0.00 | 0.00 | 0.00 | 84 | 1011.2 |
| 20260509030136 | 49 | 222 | 0.0 | 0.0 | 0.00 | 0.00 | 0.00 | 84 | 1011.3 |
| 20260509025625 | 49 | 255 | 0.0 | 0.0 | 0.00 | 0.00 | 0.00 | 84 | 1011.2 |
| 20260509025138 | 49 | 255 | 0.0 | 0.0 | 0.00 | 0.00 | 0.00 | 84 | 1011.4 |
| 20260509024646 | 49 | 255 | 0.0 | 0.0 | 0.00 | 0.00 | 0.00 | 84 | 1011.4 |
| 20260509024121 | 49 | 255 | 0.0 | 0.0 | 0.00 | 0.00 | 0.00 | 84 | 1011.3 |
| 20260509023635 | 49 | 255 | 0.0 | 0.0 | 0.00 | 0.00 | 0.00 | 83 | 1011.4 |
| 20260509023121 | 49 | 255 | 0.0 | 0.0 | 0.00 | 0.00 | 0.00 | 83 | 1011.3 |
| 20260509022638 | 49 | 255 | 0.0 | 4.0 | 0.00 | 0.00 | 0.00 | 83 | 1011.3 |
| 20260509022145 | 50 | 274 | 0.0 | 6.0 | 0.00 | 0.00 | 0.00 | 83 | 1011.4 |
| 20260509021618 | 50 | 274 | 1.0 | 3.0 | 0.00 | 0.00 | 0.00 | 83 | 1011.4 |
| 20260509021135 | 50 | 236 | 0.0 | 0.0 | 0.00 | 0.00 | 0.00 | 83 | 1011.3 |
| 20260509020642 | 50 | 236 | 0.0 | 0.0 | 0.00 | 0.00 | 0.00 | 83 | 1011.3 |
| 20260509020135 | 50 | 236 | 0.0 | 0.0 | 0.00 | 0.00 | 0.00 | 83 | 1011.6 |
| 20260509015625 | 50 | 236 | 0.0 | 0.0 | 0.00 | 0.00 | 0.00 | 83 | 1011.7 |
| 20260509015119 | 50 | 236 | 0.0 | 0.0 | 0.00 | 0.00 | 0.00 | 83 | 1011.7 |
| 20260509014634 | 49 | 236 | 0.0 | 0.0 | 0.00 | 0.00 | 0.00 | 82 | 1011.6 |
| 20260509014122 | 49 | 236 | 0.0 | 0.0 | 0.00 | 0.00 | 0.00 | 82 | 1011.7 |
| 20260509013631 | 49 | 236 | 0.0 | 0.0 | 0.00 | 0.00 | 0.00 | 82 | 1011.4 |
| 20260509013117 | 49 | 236 | 0.0 | 0.0 | 0.00 | 0.00 | 0.00 | 82 | 1011.5 |
| 20260509012634 | 49 | 236 | 0.0 | 0.0 | 0.00 | 0.00 | 0.00 | 81 | 1011.5 |
| 20260509012128 | 50 | 236 | 0.0 | 0.0 | 0.00 | 0.00 | 0.00 | 81 | 1011.5 |
| 20260509011624 | 50 | 236 | 0.0 | 0.0 | 0.00 | 0.00 | 0.00 | 81 | 1011.4 |
| 20260509011121 | 50 | 236 | 0.0 | 0.0 | 0.00 | 0.00 | 0.00 | 81 | 1011.3 |
| 20260509010633 | 50 | 236 | 0.0 | 0.0 | 0.00 | 0.00 | 0.00 | 80 | 1011.3 |
| 20260509010139 | 50 | 236 | 0.0 | 0.0 | 0.00 | 0.00 | 0.00 | 78 | 1011.2 |
| 20260509005626 | 50 | 236 | 0.0 | 0.0 | 0.00 | 0.00 | 0.00 | 77 | 1011.1 |
| 20260509005139 | 51 | 236 | 0.0 | 0.0 | 0.00 | 0.00 | 0.00 | 76 | 1011.1 |
| 20260509004634 | 51 | 236 | 0.0 | 0.0 | 0.00 | 0.00 | 0.00 | 75 | 1011.1 |
| 20260509004124 | 52 | 236 | 0.0 | 0.0 | 0.00 | 0.00 | 0.00 | 74 | 1010.9 |
| 20260509003636 | 52 | 236 | 0.0 | 0.0 | 0.00 | 0.00 | 0.00 | 74 | 1010.9 |
| 20260509003124 | 53 | 236 | 0.0 | 0.0 | 0.00 | 0.00 | 0.00 | 72 | 1010.8 |
| 20260509002639 | 54 | 236 | 0.0 | 0.0 | 0.00 | 0.00 | 0.00 | 71 | 1010.7 |
| 20260509002124 | 54 | 236 | 0.0 | 0.0 | 0.00 | 0.00 | 0.00 | 72 | 1010.7 |
| 20260509001638 | 55 | 236 | 0.0 | 0.0 | 0.00 | 0.00 | 0.00 | 72 | 1010.7 |
| 20260509001127 | 55 | 237 | 0.0 | 0.0 | 0.00 | 0.00 | 0.00 | 71 | 1010.8 |
| 20260509000619 | 55 | 237 | 0.0 | 0.0 | 0.00 | 0.00 | 0.00 | 70 | 1010.8 |
| 20260509000135 | 56 | 237 | 0.0 | 0.0 | 0.00 | 0.00 | 0.00 | 70 | 1010.9 |
| 20260508235644 | 56 | 237 | 0.0 | 0.0 | 0.00 | 0.00 | 0.00 | 70 | 1011.0 |
| 20260508235159 | 56 | 237 | 0.0 | 0.0 | 0.00 | 0.00 | 0.00 | 70 | 1010.9 |
| 20260508234624 | 56 | 237 | 0.0 | 0.0 | 0.00 | 0.00 | 0.00 | 69 | 1011.0 |
| 20260508234119 | 56 | 237 | 0.0 | 0.0 | 0.00 | 0.00 | 0.00 | 65 | 1011.0 |
| 20260508233649 | 57 | 237 | 0.0 | 0.0 | 0.00 | 0.00 | 0.00 | 66 | 1011.0 |
| 20260508233121 | 57 | 237 | 0.0 | 0.0 | 0.00 | 0.00 | 0.00 | 64 | 1010.9 |
| 20260508232638 | 57 | 237 | 0.0 | 0.0 | 0.00 | 0.00 | 0.00 | 61 | 1011.0 |
| 20260508232123 | 58 | 237 | 0.0 | 2.0 | 0.00 | 0.00 | 0.00 | 60 | 1010.9 |
| 20260508231635 | 58 | 237 | 0.0 | 3.0 | 0.00 | 0.00 | 0.00 | 61 | 1011.0 |
| 20260508231123 | 58 | 237 | 0.0 | 4.0 | 0.00 | 0.00 | 0.00 | 59 | 1010.9 |
| 20260508230617 | 58 | 237 | 1.0 | 5.0 | 0.00 | 0.00 | 0.00 | 58 | 1010.9 |
| 20260508230131 | 59 | 262 | 1.0 | 8.0 | 0.00 | 0.00 | 0.00 | 58 | 1010.8 |
| 20260508225643 | 59 | 214 | 4.0 | 11.0 | 0.00 | 0.00 | 0.00 | 55 | 1010.8 |
| 20260508225156 | 60 | 230 | 5.0 | 11.0 | 0.00 | 0.00 | 0.00 | 54 | 1010.8 |
| 20260508224622 | 60 | 227 | 3.0 | 9.0 | 0.00 | 0.00 | 0.00 | 54 | 1010.7 |
| 20260508224200 | 60 | 276 | 2.0 | 8.0 | 0.00 | 0.00 | 0.00 | 56 | 1010.8 |
| 20260508223643 | 60 | 245 | 1.0 | 8.0 | 0.00 | 0.00 | 0.00 | 57 | 1010.7 |
| 20260508223137 | 60 | 245 | 4.0 | 9.0 | 0.00 | 0.00 | 0.00 | 56 | 1010.7 |
| 20260508222646 | 59 | 212 | 3.0 | 10.0 | 0.00 | 0.00 | 0.00 | 57 | 1010.7 |
| 20260508222118 | 59 | 241 | 5.0 | 10.0 | 0.00 | 0.00 | 0.00 | 56 | 1010.8 |
| 20260508221648 | 60 | 268 | 1.0 | 13.0 | 0.00 | 0.00 | 0.00 | 56 | 1010.8 |
| 20260508221141 | 60 | 251 | 1.0 | 13.0 | 0.00 | 0.00 | 0.00 | 57 | 1011.0 |
| 20260508220627 | 59 | 170 | 2.0 | 13.0 | 0.00 | 0.00 | 0.00 | 59 | 1011.0 |
| 20260508220141 | 58 | 205 | 3.0 | 14.0 | 0.00 | 0.00 | 0.00 | 60 | 1011.2 |
| 20260508215635 | 58 | 204 | 3.0 | 8.0 | 0.00 | 0.00 | 0.00 | 60 | 1011.2 |
| 20260508215121 | 58 | 225 | 4.0 | 10.0 | 0.00 | 0.00 | 0.00 | 60 | 1011.2 |
| 20260508214636 | 58 | 205 | 5.0 | 11.0 | 0.00 | 0.00 | 0.00 | 60 | 1011.3 |
| 20260508214124 | 58 | 195 | 5.0 | 11.0 | 0.00 | 0.00 | 0.00 | 60 | 1011.3 |
| 20260508213658 | 58 | 186 | 3.0 | 23.0 | 0.00 | 0.00 | 0.00 | 59 | 1011.3 |
| 20260508213124 | 58 | 178 | 12.0 | 23.0 | 0.00 | 0.00 | 0.00 | 58 | 1011.3 |
| 20260508212639 | 58 | 233 | 11.0 | 19.0 | 0.00 | 0.00 | 0.00 | 58 | 1011.3 |
| 20260508212127 | 58 | 250 | 11.0 | 17.0 | 0.00 | 0.00 | 0.00 | 58 | 1011.3 |
| 20260508211621 | 58 | 248 | 10.0 | 21.0 | 0.00 | 0.00 | 0.00 | 58 | 1011.2 |
| 20260508211138 | 59 | 254 | 14.0 | 26.0 | 0.00 | 0.00 | 0.00 | 57 | 1011.3 |
| 20260508210646 | 59 | 214 | 9.0 | 25.0 | 0.00 | 0.00 | 0.00 | 57 | 1011.4 |
| 20260508210119 | 59 | 226 | 17.0 | 25.0 | 0.00 | 0.00 | 0.00 | 56 | 1011.4 |
| 20260508205634 | 59 | 244 | 11.0 | 17.0 | 0.00 | 0.00 | 0.00 | 56 | 1011.3 |
| 20260508205140 | 60 | 226 | 11.0 | 18.0 | 0.00 | 0.00 | 0.00 | 55 | 1011.2 |
| 20260508204642 | 60 | 261 | 10.0 | 19.0 | 0.00 | 0.00 | 0.00 | 55 | 1011.1 |
| 20260508204156 | 60 | 185 | 12.0 | 22.0 | 0.00 | 0.00 | 0.00 | 54 | 1011.0 |
| 20260508203622 | 60 | 216 | 12.0 | 21.0 | 0.00 | 0.00 | 0.00 | 54 | 1011.0 |
| 20260508203137 | 60 | 224 | 9.0 | 21.0 | 0.00 | 0.00 | 0.00 | 56 | 1011.1 |
| 20260508202626 | 60 | 257 | 8.0 | 16.0 | 0.00 | 0.00 | 0.00 | 57 | 1011.0 |
| 20260508202137 | 60 | 239 | 7.0 | 13.0 | 0.00 | 0.00 | 0.00 | 57 | 1011.1 |
| 20260508201624 | 60 | 218 | 8.0 | 13.0 | 0.00 | 0.00 | 0.00 | 57 | 1011.0 |
| 20260508201120 | 59 | 223 | 5.0 | 12.0 | 0.00 | 0.00 | 0.00 | 59 | 1011.1 |
| 20260508200633 | 59 | 210 | 4.0 | 11.0 | 0.00 | 0.00 | 0.00 | 59 | 1011.2 |
| 20260508200121 | 58 | 229 | 7.0 | 14.0 | 0.00 | 0.00 | 0.00 | 61 | 1011.3 |
| 20260508195635 | 58 | 245 | 6.0 | 20.0 | 0.00 | 0.00 | 0.00 | 61 | 1011.4 |
| 20260508195124 | 58 | 230 | 14.0 | 30.0 | 0.00 | 0.00 | 0.00 | 60 | 1011.5 |
| 20260508194617 | 58 | 241 | 13.0 | 30.0 | 0.00 | 0.00 | 0.00 | 59 | 1011.6 |
| 20260508194133 | 58 | 247 | 7.0 | 17.0 | 0.00 | 0.00 | 0.00 | 59 | 1011.7 |
| 20260508193620 | 59 | 234 | 7.0 | 14.0 | 0.00 | 0.00 | 0.00 | 57 | 1011.5 |
| 20260508193135 | 59 | 265 | 5.0 | 15.0 | 0.00 | 0.00 | 0.00 | 56 | 1011.3 |
| 20260508192624 | 59 | 278 | 5.0 | 16.0 | 0.00 | 0.00 | 0.00 | 55 | 1011.3 |
| 20260508192117 | 59 | 265 | 9.0 | 21.0 | 0.00 | 0.00 | 0.00 | 53 | 1011.3 |
| 20260508191632 | 60 | 241 | 10.0 | 21.0 | 0.00 | 0.00 | 0.00 | 51 | 1011.4 |
| 20260508191122 | 61 | 247 | 10.0 | 18.0 | 0.00 | 0.00 | 0.00 | 49 | 1011.2 |
| 20260508190634 | 61 | 230 | 7.0 | 19.0 | 0.00 | 0.00 | 0.00 | 49 | 1011.1 |
| 20260508190122 | 62 | 275 | 11.0 | 19.0 | 0.00 | 0.00 | 0.00 | 47 | 1011.0 |
| 20260508185637 | 62 | 241 | 11.0 | 18.0 | 0.00 | 0.00 | 0.00 | 48 | 1011.1 |
| 20260508185144 | 62 | 173 | 9.0 | 15.0 | 0.00 | 0.00 | 0.00 | 47 | 1011.3 |
| 20260508184635 | 62 | 174 | 7.0 | 15.0 | 0.00 | 0.00 | 0.00 | 49 | 1011.1 |
| 20260508184121 | 61 | 218 | 9.0 | 17.0 | 0.00 | 0.00 | 0.00 | 49 | 1011.3 |
| 20260508183615 | 60 | 230 | 4.0 | 17.0 | 0.00 | 0.00 | 0.00 | 49 | 1011.4 |
| 20260508183128 | 60 | 224 | 8.0 | 22.0 | 0.00 | 0.00 | 0.00 | 48 | 1011.5 |
| 20260508182624 | 60 | 178 | 14.0 | 22.0 | 0.00 | 0.00 | 0.00 | 47 | 1011.5 |
| 20260508182157 | 60 | 245 | 12.0 | 22.0 | 0.00 | 0.00 | 0.00 | 47 | 1011.4 |
| 20260508181624 | 60 | 272 | 8.0 | 25.0 | 0.00 | 0.00 | 0.00 | 47 | 1011.4 |
| 20260508181141 | 61 | 257 | 16.0 | 25.0 | 0.00 | 0.00 | 0.00 | 44 | 1011.6 |
| 20260508180626 | 61 | 234 | 8.0 | 21.0 | 0.00 | 0.00 | 0.00 | 44 | 1011.5 |
| 20260508180139 | 62 | 233 | 12.0 | 21.0 | 0.00 | 0.00 | 0.00 | 43 | 1011.4 |
| 20260508175633 | 63 | 197 | 8.0 | 16.0 | 0.00 | 0.00 | 0.00 | 42 | 1011.4 |
| 20260508175120 | 63 | 245 | 2.0 | 18.0 | 0.00 | 0.00 | 0.00 | 44 | 1011.3 |
| 20260508174635 | 63 | 275 | 12.0 | 25.0 | 0.00 | 0.00 | 0.00 | 45 | 1011.5 |
| 20260508174145 | 63 | 257 | 16.0 | 25.0 | 0.00 | 0.00 | 0.00 | 41 | 1011.7 |
| 20260508173657 | 63 | 218 | 8.0 | 16.0 | 0.00 | 0.00 | 0.00 | 45 | 1011.8 |
| 20260508173122 | 62 | 206 | 9.0 | 20.0 | 0.00 | 0.00 | 0.00 | 44 | 1011.6 |
| 20260508172658 | 62 | 232 | 9.0 | 20.0 | 0.00 | 0.00 | 0.00 | 41 | 1011.7 |
| 20260508172123 | 63 | 227 | 11.0 | 18.0 | 0.00 | 0.00 | 0.00 | 44 | 1011.9 |
| 20260508171618 | 62 | 226 | 10.0 | 16.0 | 0.00 | 0.00 | 0.00 | 47 | 1011.8 |
| 20260508171131 | 61 | 243 | 11.0 | 21.0 | 0.00 | 0.00 | 0.00 | 45 | 1011.9 |
| 20260508170625 | 61 | 278 | 10.0 | 21.0 | 0.00 | 0.00 | 0.00 | 45 | 1011.8 |
| 20260508170120 | 61 | 247 | 13.0 | 25.0 | 0.00 | 0.00 | 0.00 | 46 | 1012.0 |
| 20260508165635 | 61 | 244 | 7.0 | 16.0 | 0.00 | 0.00 | 0.00 | 46 | 1012.0 |
| 20260508165120 | 60 | 270 | 8.0 | 18.0 | 0.00 | 0.00 | 0.00 | 45 | 1012.0 |
| 20260508164634 | 60 | 234 | 7.0 | 18.0 | 0.00 | 0.00 | 0.00 | 47 | 1012.1 |
| 20260508164130 | 61 | 232 | 3.0 | 17.0 | 0.00 | 0.00 | 0.00 | 45 | 1012.2 |
| 20260508163624 | 61 | 237 | 11.0 | 19.0 | 0.00 | 0.00 | 0.00 | 48 | 1012.1 |
| 20260508163117 | 60 | 266 | 12.0 | 20.0 | 0.00 | 0.00 | 0.00 | 47 | 1012.2 |
| 20260508162633 | 60 | 220 | 4.0 | 20.0 | 0.00 | 0.00 | 0.00 | 48 | 1012.3 |
| 20260508162140 | 60 | 241 | 7.0 | 18.0 | 0.00 | 0.00 | 0.00 | 49 | 1012.4 |
| 20260508161626 | 60 | 219 | 9.0 | 18.0 | 0.00 | 0.00 | 0.00 | 48 | 1012.4 |
| 20260508161120 | 60 | 306 | 6.0 | 16.0 | 0.00 | 0.00 | 0.00 | 50 | 1012.5 |
| 20260508160653 | 60 | 267 | 6.0 | 13.0 | 0.00 | 0.00 | 0.00 | 54 | 1012.7 |
| 20260508160120 | 58 | 168 | 7.0 | 11.0 | 0.00 | 0.00 | 0.00 | 51 | 1012.6 |
| 20260508155636 | 58 | 283 | 6.0 | 17.0 | 0.00 | 0.00 | 0.00 | 51 | 1012.7 |
| 20260508155144 | 59 | 309 | 12.0 | 17.0 | 0.00 | 0.00 | 0.00 | 50 | 1012.8 |
| 20260508154657 | 58 | 271 | 5.0 | 19.0 | 0.00 | 0.00 | 0.00 | 55 | 1012.8 |
| 20260508154126 | 58 | 262 | 10.0 | 18.0 | 0.00 | 0.00 | 0.00 | 53 | 1012.8 |
| 20260508153619 | 58 | 286 | 5.0 | 17.0 | 0.00 | 0.00 | 0.00 | 51 | 1012.9 |
| 20260508153134 | 57 | 285 | 7.0 | 17.0 | 0.00 | 0.00 | 0.00 | 56 | 1013.0 |
| 20260508152621 | 57 | 237 | 5.0 | 18.0 | 0.00 | 0.00 | 0.00 | 50 | 1012.9 |
| 20260508152135 | 58 | 284 | 12.0 | 18.0 | 0.00 | 0.00 | 0.00 | 50 | 1013.0 |
| 20260508151622 | 58 | 215 | 6.0 | 22.0 | 0.00 | 0.00 | 0.00 | 51 | 1012.8 |
| 20260508151118 | 58 | 266 | 13.0 | 25.0 | 0.00 | 0.00 | 0.00 | 50 | 1012.9 |
| 20260508150647 | 58 | 219 | 13.0 | 24.0 | 0.00 | 0.00 | 0.00 | 49 | 1012.9 |
| 20260508150121 | 58 | 230 | 14.0 | 24.0 | 0.00 | 0.00 | 0.00 | 49 | 1012.8 |
| 20260508145635 | 57 | 190 | 12.0 | 21.0 | 0.00 | 0.00 | 0.00 | 50 | 1012.8 |
| 20260508145128 | 57 | 232 | 12.0 | 19.0 | 0.00 | 0.00 | 0.00 | 51 | 1012.8 |
| 20260508144622 | 56 | 270 | 11.0 | 19.0 | 0.00 | 0.00 | 0.00 | 53 | 1012.9 |
| 20260508144138 | 55 | 195 | 8.0 | 19.0 | 0.00 | 0.00 | 0.00 | 54 | 1013.0 |
| 20260508143625 | 56 | 222 | 11.0 | 25.0 | 0.00 | 0.00 | 0.00 | 51 | 1013.1 |
| 20260508143119 | 56 | 229 | 16.0 | 25.0 | 0.00 | 0.00 | 0.00 | 49 | 1013.1 |
| 20260508142634 | 56 | 251 | 11.0 | 23.0 | 0.00 | 0.00 | 0.00 | 50 | 1013.0 |
| 20260508142120 | 56 | 216 | 14.0 | 23.0 | 0.00 | 0.00 | 0.00 | 49 | 1012.9 |
| 20260508141634 | 56 | 235 | 8.0 | 21.0 | 0.00 | 0.00 | 0.00 | 51 | 1012.9 |
| 20260508141119 | 55 | 274 | 11.0 | 19.0 | 0.00 | 0.00 | 0.00 | 51 | 1012.9 |
| 20260508140635 | 55 | 237 | 13.0 | 19.0 | 0.00 | 0.00 | 0.00 | 52 | 1013.1 |
| 20260508140142 | 55 | 222 | 8.0 | 18.0 | 0.00 | 0.00 | 0.00 | 56 | 1013.2 |
| 20260508135658 | 55 | 179 | 6.0 | 16.0 | 0.00 | 0.00 | 0.00 | 56 | 1013.0 |
| 20260508135124 | 55 | 173 | 9.0 | 16.0 | 0.00 | 0.00 | 0.00 | 58 | 1013.0 |
| 20260508134638 | 55 | 169 | 9.0 | 17.0 | 0.00 | 0.00 | 0.00 | 59 | 1013.0 |
| 20260508134123 | 54 | 169 | 12.0 | 17.0 | 0.00 | 0.00 | 0.00 | 60 | 1013.1 |
| 20260508133656 | 54 | 162 | 9.0 | 16.0 | 0.00 | 0.00 | 0.00 | 60 | 1012.9 |
| 20260508133122 | 53 | 172 | 11.0 | 17.0 | 0.00 | 0.00 | 0.00 | 62 | 1013.0 |
| 20260508132617 | 52 | 196 | 12.0 | 21.0 | 0.00 | 0.00 | 0.00 | 63 | 1013.2 |
| 20260508132125 | 52 | 174 | 13.0 | 22.0 | 0.00 | 0.00 | 0.00 | 63 | 1013.2 |
| 20260508131619 | 51 | 193 | 11.0 | 17.0 | 0.00 | 0.00 | 0.00 | 65 | 1013.2 |
| 20260508131156 | 51 | 195 | 9.0 | 18.0 | 0.00 | 0.00 | 0.00 | 65 | 1013.3 |
| 20260508130628 | 50 | 176 | 9.0 | 18.0 | 0.00 | 0.00 | 0.00 | 64 | 1013.4 |
| 20260508130123 | 50 | 169 | 10.0 | 15.0 | 0.00 | 0.00 | 0.00 | 66 | 1013.4 |
| 20260508125619 | 49 | 203 | 9.0 | 15.0 | 0.00 | 0.00 | 0.00 | 65 | 1013.5 |
| 20260508125132 | 49 | 185 | 8.0 | 16.0 | 0.00 | 0.00 | 0.00 | 66 | 1013.5 |
| 20260508124619 | 48 | 221 | 7.0 | 11.0 | 0.00 | 0.00 | 0.00 | 67 | 1013.6 |
| 20260508124156 | 48 | 212 | 5.0 | 10.0 | 0.00 | 0.00 | 0.00 | 68 | 1013.6 |
| 20260508123621 | 47 | 215 | 6.0 | 11.0 | 0.00 | 0.00 | 0.00 | 70 | 1013.5 |
| 20260508123135 | 46 | 193 | 7.0 | 11.0 | 0.00 | 0.00 | 0.00 | 71 | 1013.5 |
| 20260508122622 | 46 | 187 | 4.0 | 10.0 | 0.00 | 0.00 | 0.00 | 72 | 1013.5 |
| 20260508122137 | 45 | 225 | 5.0 | 11.0 | 0.00 | 0.00 | 0.00 | 74 | 1013.4 |
| 20260508121624 | 45 | 201 | 7.0 | 11.0 | 0.00 | 0.00 | 0.00 | 78 | 1013.4 |
| 20260508121120 | 44 | 178 | 4.0 | 8.0 | 0.00 | 0.00 | 0.00 | 80 | 1013.5 |
| 20260508120633 | 43 | 205 | 2.0 | 5.0 | 0.00 | 0.00 | 0.00 | 83 | 1013.6 |
| 20260508120140 | 42 | 206 | 2.0 | 7.0 | 0.00 | 0.00 | 0.00 | 84 | 1013.7 |
| 20260508115655 | 41 | 180 | 4.0 | 7.0 | 0.00 | 0.00 | 0.00 | 85 | 1013.6 |
| 20260508115120 | 41 | 232 | 2.0 | 5.0 | 0.00 | 0.00 | 0.00 | 86 | 1013.6 |
| 20260508114651 | 40 | 232 | 3.0 | 4.0 | 0.00 | 0.00 | 0.00 | 86 | 1013.5 |
| 20260508114125 | 39 | 220 | 1.0 | 7.0 | 0.00 | 0.00 | 0.00 | 87 | 1013.4 |
| 20260508113638 | 39 | 240 | 3.0 | 7.0 | 0.00 | 0.00 | 0.00 | 87 | 1013.5 |
| 20260508113145 | 38 | 206 | 1.0 | 5.0 | 0.00 | 0.00 | 0.00 | 87 | 1013.5 |
| 20260508112639 | 38 | 205 | 2.0 | 5.0 | 0.00 | 0.00 | 0.00 | 88 | 1013.5 |
| 20260508112133 | 38 | 195 | 1.0 | 5.0 | 0.00 | 0.00 | 0.00 | 88 | 1013.5 |
| 20260508111618 | 37 | 201 | 1.0 | 4.0 | 0.00 | 0.00 | 0.00 | 88 | 1013.4 |
| 20260508111135 | 37 | 182 | 0.0 | 3.0 | 0.00 | 0.00 | 0.00 | 88 | 1013.3 |
| 20260508110640 | 36 | 218 | 1.0 | 2.0 | 0.00 | 0.00 | 0.00 | 88 | 1013.3 |
| 20260508110125 | 36 | 218 | 0.0 | 0.0 | 0.00 | 0.00 | 0.00 | 88 | 1013.3 |
| 20260508105620 | 35 | 220 | 0.0 | 0.0 | 0.00 | 0.00 | 0.00 | 88 | 1013.3 |
| 20260508105134 | 35 | 220 | 0.0 | 0.0 | 0.00 | 0.00 | 0.00 | 88 | 1013.2 |
| 20260508104622 | 35 | 219 | 0.0 | 0.0 | 0.00 | 0.00 | 0.00 | 88 | 1013.1 |
| 20260508104119 | 35 | 220 | 0.0 | 2.0 | 0.00 | 0.00 | 0.00 | 88 | 1013.1 |
| 20260508103633 | 35 | 220 | 0.0 | 2.0 | 0.00 | 0.00 | 0.00 | 88 | 1013.1 |
| 20260508103140 | 34 | 219 | 0.0 | 3.0 | 0.00 | 0.00 | 0.00 | 88 | 1013.1 |
| 20260508102636 | 34 | 221 | 0.0 | 4.0 | 0.00 | 0.00 | 0.00 | 88 | 1013.1 |
| 20260508102144 | 33 | 216 | 2.0 | 4.0 | 0.00 | 0.00 | 0.00 | 88 | 1013.1 |
| 20260508101618 | 33 | 218 | 1.0 | 2.0 | 0.00 | 0.00 | 0.00 | 88 | 1013.0 |
| 20260508101133 | 33 | 216 | 0.0 | 3.0 | 0.00 | 0.00 | 0.00 | 88 | 1013.0 |
| 20260508100620 | 33 | 217 | 1.0 | 3.0 | 0.00 | 0.00 | 0.00 | 88 | 1012.9 |
| 20260508100151 | 33 | 217 | 1.0 | 3.0 | 0.00 | 0.00 | 0.00 | 88 | 1012.9 |
| 20260508095646 | 33 | 220 | 0.0 | 2.0 | 0.00 | 0.00 | 0.00 | 88 | 1012.8 |
| 20260508095159 | 32 | 220 | 0.0 | 2.0 | 0.00 | 0.00 | 0.00 | 87 | 1012.8 |
| 20260508094626 | 32 | 220 | 1.0 | 2.0 | 0.00 | 0.00 | 0.00 | 87 | 1012.9 |
| 20260508094121 | 32 | 220 | 0.0 | 0.0 | 0.00 | 0.00 | 0.00 | 87 | 1013.0 |
| 20260508093634 | 32 | 220 | 0.0 | 0.0 | 0.00 | 0.00 | 0.00 | 87 | 1012.9 |
| 20260508093122 | 33 | 220 | 0.0 | 2.0 | 0.00 | 0.00 | 0.00 | 87 | 1012.9 |
| 20260508092638 | 33 | 220 | 1.0 | 2.0 | 0.00 | 0.00 | 0.00 | 87 | 1013.0 |
| 20260508092145 | 33 | 220 | 1.0 | 2.0 | 0.00 | 0.00 | 0.00 | 87 | 1012.9 |
| 20260508091659 | 33 | 220 | 0.0 | 2.0 | 0.00 | 0.00 | 0.00 | 87 | 1012.8 |
| 20260508091125 | 33 | 221 | 0.0 | 2.0 | 0.00 | 0.00 | 0.00 | 87 | 1012.8 |
| 20260508090620 | 33 | 221 | 1.0 | 3.0 | 0.00 | 0.00 | 0.00 | 87 | 1012.8 |
| 20260508090135 | 33 | 222 | 2.0 | 3.0 | 0.00 | 0.00 | 0.00 | 87 | 1012.9 |
| 20260508085624 | 33 | 222 | 1.0 | 4.0 | 0.00 | 0.00 | 0.00 | 87 | 1013.0 |
| 20260508085158 | 33 | 224 | 3.0 | 4.0 | 0.00 | 0.00 | 0.00 | 87 | 1012.9 |
| 20260508084624 | 33 | 211 | 2.0 | 4.0 | 0.00 | 0.00 | 0.00 | 87 | 1012.8 |
| 20260508084155 | 33 | 224 | 2.0 | 4.0 | 0.00 | 0.00 | 0.00 | 87 | 1012.8 |
| 20260508083621 | 33 | 225 | 1.0 | 3.0 | 0.00 | 0.00 | 0.00 | 86 | 1012.7 |
| 20260508083137 | 33 | 201 | 0.0 | 0.0 | 0.00 | 0.00 | 0.00 | 86 | 1012.6 |
| 20260508082626 | 33 | 202 | 0.0 | 2.0 | 0.00 | 0.00 | 0.00 | 86 | 1012.7 |
| 20260508082119 | 34 | 202 | 0.0 | 3.0 | 0.00 | 0.00 | 0.00 | 86 | 1012.8 |
| 20260508081634 | 34 | 202 | 2.0 | 3.0 | 0.00 | 0.00 | 0.00 | 86 | 1012.7 |
| 20260508081123 | 34 | 204 | 1.0 | 2.0 | 0.00 | 0.00 | 0.00 | 86 | 1012.6 |
| 20260508080637 | 34 | 205 | 1.0 | 2.0 | 0.00 | 0.00 | 0.00 | 86 | 1012.7 |
| 20260508080124 | 34 | 205 | 1.0 | 3.0 | 0.00 | 0.00 | 0.00 | 85 | 1012.7 |
| 20260508075636 | 34 | 205 | 2.0 | 3.0 | 0.00 | 0.00 | 0.00 | 85 | 1012.7 |
| 20260508075119 | 35 | 210 | 0.0 | 2.0 | 0.00 | 0.00 | 0.00 | 85 | 1012.8 |
| 20260508074633 | 35 | 210 | 1.0 | 2.0 | 0.00 | 0.00 | 0.00 | 85 | 1012.8 |
| 20260508074122 | 35 | 211 | 1.0 | 3.0 | 0.00 | 0.00 | 0.00 | 84 | 1012.7 |
| 20260508073635 | 35 | 212 | 1.0 | 3.0 | 0.00 | 0.00 | 0.00 | 84 | 1012.7 |
| 20260508073122 | 36 | 214 | 2.0 | 2.0 | 0.00 | 0.00 | 0.00 | 84 | 1012.6 |
| 20260508072635 | 36 | 214 | 0.0 | 2.0 | 0.00 | 0.00 | 0.00 | 84 | 1012.4 |
| 20260508072121 | 36 | 212 | 1.0 | 2.0 | 0.00 | 0.00 | 0.00 | 84 | 1012.5 |
| 20260508071636 | 37 | 213 | 0.0 | 1.0 | 0.00 | 0.00 | 0.00 | 84 | 1012.6 |